Tracking 35331 objects as of 17-Sep-2026
HD Live streaming from Space Station
objects crossing your sky now

COSMOS 1746 DEB


COSMOS 1746 DEB is no longer on orbit


NORAD ID: 16787
Int'l Code: 1986-040H
Launch date: May 28, 1986
Source: Commonwealth of Independent States (former USSR) (CIS)
Launch site: PLESETSK MISSILE AND SPACE COMPLEX (PKMTR)
Decay date: 1986-07-07

Note: This is SATELLITE DEBRIS
Your satellite tracking list
Your tracking list is empty




NASA's NSSDC Master Catalog

Two Line Element Set (TLE):
1 16787U 86040H   86174.68792190  .00567739 -11588-5 +18187-2 0  9998
2 16787 082.3459 359.7823 0118778 269.6215 088.0265 15.80234991101465
Source of the keplerian elements: AFSPC